QPF
0.02 0.02 0.02 0.03 0.03 0.04 0.07 0.08 0.09 0.10 0.14 0.13 0.12 0.11 0.10 0.09 0.06 0.04 0.03 0.03 0.02 0.01 0.01 0.00 0.01 0.01 0.01 0.01 0.01 0.01 0.01 0.01 0.01 0.01 0.00 0.00 0.00 0.00 0.00 0.00 0.00 0.00 0.00
0.02 0.01 0.02 0.02 0.02 0.02 0.03 0.04 0.07 0.11 0.11 0.07 0.07 0.10 0.13 0.12 0.11 0.10 0.07 0.04 0.03 0.03 0.02 0.01 0.01 0.01 0.01 0.01 0.02 0.02 0.01 0.01 0.01 0.01 0.01 0.00 0.00 0.00 0.00 0.00 0.00 0.00 0.00
0.01 0.01 0.00 0.01 0.02 0.02 0.02 0.03 0.06 0.07 0.08 0.08 0.10 0.12 0.14 0.14 0.12 0.10 0.09 0.07 0.07 0.06 0.05 0.04 0.02 0.02 0.02 0.01 0.02 0.02 0.02 0.02 0.02 0.01 0.02 0.01 0.01 0.00 0.00 0.00 0.00 0.00 0.00
0.00 0.01 0.01 0.01 0.01 0.02 0.03 0.03 0.06 0.06 0.06 0.07 0.06 0.07 0.10 0.10 0.10 0.10 0.12 0.12 0.10 0.08 0.07 0.06 0.05 0.04 0.03 0.03 0.03 0.03 0.03 0.03 0.02 0.02 0.02 0.02 0.03 0.03 0.01 0.00 0.00 0.00 0.01
0.00 0.00 0.01 0.01 0.01 0.02 0.02 0.03 0.02 0.03 0.04 0.05 0.05 0.05 0.06 0.10 0.12 0.11 0.09 0.09 0.09 0.09 0.08 0.07 0.06 0.05 0.05 0.04 0.05 0.05 0.05 0.05 0.05 0.05 0.04 0.04 0.04 0.04 0.04 0.02 0.01 0.01 0.01
0.00 0.00 0.00 0.01 0.01 0.01 0.01 0.03 0.03 0.02 0.03 0.04 0.04 0.04 0.04 0.05 0.06 0.07 0.09 0.08 0.07 0.07 0.07 0.07 0.06 0.06 0.05 0.05 0.05 0.06 0.06 0.06 0.05 0.05 0.05 0.04 0.04 0.04 0.04 0.04 0.02 0.02 0.01
0.00 0.00 0.00 0.00 0.00 0.01 0.01 0.01 0.02 0.02 0.02 0.03 0.03 0.04 0.04 0.05 0.05 0.05 0.06 0.06 0.06 0.06 0.05 0.07 0.07 0.07 0.06 0.07 0.08 0.08 0.07 0.07 0.06 0.06 0.06 0.05 0.04 0.04 0.03 0.03 0.02 0.02 0.01
0.00 0.00 0.00 0.00 0.01 0.01 0.01 0.01 0.01 0.02 0.02 0.02 0.02 0.03 0.03 0.03 0.04 0.04 0.04 0.04 0.04 0.05 0.05 0.06 0.06 0.07 0.07 0.08 0.08 0.08 0.07 0.08 0.07 0.07 0.07 0.06 0.04 0.03 0.03 0.03 0.03 0.02 0.02
0.00 0.00 0.00 0.00 0.00 0.00 0.00 0.00 0.01 0.01 0.02 0.02 0.02 0.02 0.02 0.02 0.03 0.03 0.03 0.03 0.04 0.04 0.04 0.05 0.05 0.06 0.06 0.08 0.08 0.07 0.06 0.06 0.05 0.05 0.05 0.04 0.03 0.03 0.03 0.03 0.03 0.03 0.03
0.00 0.00 0.00 0.00 0.00 0.00 0.00 0.00 0.00 0.00 0.01 0.02 0.02 0.02 0.02 0.02 0.02 0.02 0.02 0.02 0.02 0.02 0.03 0.03 0.03 0.04 0.05 0.05 0.05 0.05 0.05 0.05 0.04 0.04 0.03 0.03 0.02 0.02 0.02 0.02 0.02 0.02 0.03
0.00 0.00 0.00 0.00 0.00 0.00 0.00 0.00 0.00 0.00 0.00 0.01 0.01 0.01 0.01 0.01 0.01 0.02 0.01 0.01 0.01 0.01 0.01 0.01 0.01 0.01 0.02 0.02 0.02 0.02 0.03 0.03 0.02 0.02 0.02 0.02 0.01 0.01 0.01 0.01 0.01 0.01 0.02
0.00 0.00 0.00 0.00 0.00 0.00 0.00 0.00 0.00 0.00 0.00 0.00 0.00 0.01 0.01 0.01 0.01 0.01 0.01 0.01 0.01 0.01 0.01 0.01 0.01 0.01 0.01 0.01 0.01 0.01 0.01 0.01 0.01 0.02 0.02 0.01 0.01 0.01 0.01 0.01 0.01 0.02 0.02
0.00 0.00 0.00 0.00 0.00 0.00 0.00 0.01 0.01 0.00 0.00 0.00 0.00 0.01 0.01 0.01 0.01 0.01 0.01 0.01 0.01 0.00 0.01 0.01 0.01 0.01 0.01 0.01 0.01 0.01 0.01 0.01 0.02 0.02 0.02 0.02 0.02 0.02 0.02 0.01 0.01 0.01 0.01
0.00 0.00 0.00 0.00 0.00 0.00 0.00 0.00 0.01 0.01 0.01 0.01 0.00 0.01 0.01 0.01 0.01 0.01 0.00 0.01 0.00 0.00 0.00 0.00 0.00 0.00 0.00 0.00 0.01 0.01 0.01 0.01 0.01 0.02 0.02 0.02 0.02 0.02 0.02 0.02 0.01 0.01 0.01
0.00 0.00 0.00 0.00 0.00 0.00 0.00 0.00 0.00 0.00 0.01 0.01 0.01 0.01 0.00 0.00 0.00 0.00 0.00 0.00 0.00 0.00 0.00 0.00 0.00 0.00 0.00 0.00 0.00 0.00 0.00 0.01 0.01 0.01 0.01 0.01 0.02 0.02 0.02 0.02 0.01 0.01 0.01
0.00 0.00 0.00 0.00 0.00 0.00 0.00 0.00 0.00 0.00 0.00 0.00 0.00 0.00 0.00 0.00 0.00 0.00 0.00 0.00 0.00 0.00 0.00 0.00 0.00 0.00 0.00 0.00 0.00 0.00 0.00 0.01 0.01 0.01 0.01 0.01 0.01 0.01 0.01 0.01 0.01 0.01 0.01
0.00 0.00 0.00 0.00 0.00 0.00 0.00 0.00 0.00 0.00 0.00 0.00 0.00 0.00 0.00 0.00 0.00 0.00 0.00 0.00 0.00 0.00 0.00 0.00 0.00 0.00 0.00 0.00 0.00 0.00 0.00 0.00 0.00 0.01 0.01 0.01 0.01 0.01 0.01 0.01 0.01 0.01 0.01
0.00 0.00 0.00 0.00 0.00 0.00 0.00 0.00 0.00 0.00 0.00 0.00 0.00 0.00 0.00 0.00 0.00 0.00 0.00 0.00 0.00 0.00 0.00 0.00 0.00 0.00 0.00 0.00 0.00 0.00 0.00 0.00 0.00 0.00 0.00 0.00 0.01 0.01 0.01 0.01 0.01 0.00 0.00
0.00 0.00 0.00 0.00 0.00 0.00 0.00 0.00 0.00 0.00 0.00 0.00 0.00 0.00 0.00 0.00 0.00 0.00 0.00 0.00 0.00 0.00 0.00 0.00 0.00 0.00 0.00 0.00 0.00 0.00 0.00 0.00 0.00 0.00 0.00 0.00 0.00 0.00 0.00 0.00 0.00 0.00 0.00
0.00 0.00 0.00 0.00 0.00 0.00 0.00 0.00 0.00 0.00 0.00 0.00 0.00 0.00 0.00 0.00 0.00 0.00 0.00 0.00 0.00 0.00 0.00 0.00 0.00 0.00 0.00 0.00 0.00 0.00 0.00 0.00 0.00 0.00 0.00 0.00 0.00 0.00 0.00 0.00 0.00 0.00 0.00
0.00 0.00 0.00 0.00 0.00 0.00 0.00 0.00 0.00 0.00 0.00 0.00 0.00 0.00 0.00 0.00 0.00 0.00 0.00 0.00 0.00 0.00 0.00 0.00 0.00 0.00 0.00 0.00 0.00 0.00 0.00 0.00 0.00 0.00 0.00 0.00 0.00 0.00 0.00 0.00 0.00 0.00 0.00
0.00 0.00 0.00 0.00 0.00 0.00 0.00 0.00 0.00 0.00 0.00 0.00 0.00 0.00 0.00 0.00 0.00 0.00 0.00 0.00 0.00 0.00 0.00 0.00 0.00 0.00 0.00 0.00 0.00 0.00 0.00 0.00 0.00 0.00 0.00 0.00 0.00 0.00 0.00 0.00 0.00 0.00 0.00
0.00 0.00 0.00 0.00 0.00 0.00 0.00 0.00 0.00 0.00 0.00 0.00 0.01 0.00 0.00 0.00 0.00 0.00 0.00 0.00 0.00 0.00 0.00 0.00 0.00 0.00 0.00 0.00 0.00 0.00 0.00 0.00 0.00 0.00 0.00 0.00 0.00 0.00 0.00 0.00 0.00 0.00 0.00
0.00 0.00 0.00 0.00 0.00 0.00 0.00 0.00 0.00 0.00 0.00 0.00 0.00 0.01 0.01 0.01 0.00 0.00 0.00 0.00 0.00 0.00 0.00 0.00 0.00 0.00 0.00 0.00 0.00 0.00 0.00 0.00 0.00 0.00 0.00 0.00 0.00 0.00 0.00 0.00 0.00 0.00 0.00
0.00 0.00 0.01 0.01 0.01 0.01 0.01 0.01 0.01 0.01 0.01 0.01 0.01 0.00 0.00 0.01 0.01 0.01 0.01 0.01 0.00 0.01 0.01 0.00 0.00 0.00 0.01 0.01 0.01 0.00 0.00 0.00 0.00 0.00 0.00 0.00 0.00 0.00 0.00 0.00 0.00 0.00 0.00
0.01 0.00 0.00 0.00 0.00 0.01 0.01 0.01 0.01 0.01 0.01 0.01 0.01 0.00 0.01 0.01 0.01 0.01 0.01 0.01 0.01 0.01 0.01 0.01 0.01 0.01 0.01 0.01 0.01 0.01 0.00 0.00 0.00 0.00 0.00 0.00 0.00 0.00 0.00 0.00 0.00 0.00 0.00
MSLP
1008.38 1008.65 1008.99 1009.38 1009.81 1010.26 1010.72 1011.22 1011.78 1012.38 1013.04 1013.73 1014.45 1015.15 1015.80 1016.37 1016.85 1017.22 1017.49 1017.70 1017.87 1018.04 1018.22 1018.44 1018.70 1019.00 1019.32 1019.66 1019.98 1020.27 1020.52 1020.72 1020.87 1020.96 1020.98 1020.96 1020.87 1020.75 1020.58 1020.41 1020.24 1020.09 1020.00
1008.39 1008.60 1008.90 1009.26 1009.67 1010.12 1010.63 1011.18 1011.80 1012.48 1013.21 1013.96 1014.71 1015.43 1016.08 1016.63 1017.07 1017.40 1017.64 1017.80 1017.94 1018.06 1018.19 1018.37 1018.58 1018.83 1019.10 1019.40 1019.69 1019.97 1020.23 1020.45 1020.63 1020.75 1020.82 1020.82 1020.75 1020.62 1020.45 1020.26 1020.07 1019.92 1019.82
1008.43 1008.61 1008.87 1009.21 1009.60 1010.07 1010.59 1011.19 1011.86 1012.58 1013.35 1014.13 1014.89 1015.60 1016.22 1016.74 1017.15 1017.45 1017.66 1017.81 1017.92 1018.02 1018.13 1018.27 1018.44 1018.63 1018.85 1019.09 1019.34 1019.59 1019.84 1020.07 1020.27 1020.43 1020.54 1020.57 1020.54 1020.44 1020.29 1020.12 1019.96 1019.83 1019.78
1008.48 1008.66 1008.91 1009.23 1009.63 1010.09 1010.63 1011.24 1011.92 1012.66 1013.42 1014.19 1014.93 1015.61 1016.19 1016.67 1017.05 1017.33 1017.53 1017.68 1017.79 1017.90 1018.01 1018.14 1018.28 1018.44 1018.61 1018.79 1018.99 1019.20 1019.42 1019.65 1019.86 1020.03 1020.17 1020.24 1020.25 1020.20 1020.10 1019.98 1019.87 1019.82 1019.83
1008.55 1008.76 1009.02 1009.35 1009.74 1010.20 1010.72 1011.32 1011.98 1012.69 1013.42 1014.14 1014.83 1015.45 1015.98 1016.42 1016.77 1017.05 1017.26 1017.43 1017.58 1017.73 1017.86 1018.00 1018.14 1018.27 1018.41 1018.55 1018.70 1018.86 1019.05 1019.25 1019.44 1019.63 1019.78 1019.88 1019.93 1019.92 1019.88 1019.83 1019.80 1019.82 1019.91
1008.65 1008.91 1009.22 1009.56 1009.95 1010.39 1010.89 1011.44 1012.05 1012.70 1013.36 1014.01 1014.62 1015.18 1015.66 1016.06 1016.40 1016.68 1016.92 1017.14 1017.35 1017.55 1017.74 1017.91 1018.07 1018.20 1018.31 1018.42 1018.52 1018.64 1018.78 1018.94 1019.11 1019.28 1019.42 1019.54 1019.61 1019.64 1019.65 1019.66 1019.70 1019.80 1019.98
1008.79 1009.13 1009.49 1009.86 1010.26 1010.67 1011.13 1011.63 1012.16 1012.73 1013.31 1013.87 1014.40 1014.89 1015.32 1015.69 1016.02 1016.32 1016.61 1016.88 1017.16 1017.43 1017.68 1017.90 1018.09 1018.24 1018.34 1018.43 1018.50 1018.57 1018.66 1018.77 1018.90 1019.03 1019.15 1019.26 1019.33 1019.38 1019.42 1019.48 1019.58 1019.75 1019.99
1009.00 1009.43 1009.85 1010.26 1010.65 1011.05 1011.46 1011.89 1012.35 1012.83 1013.32 1013.80 1014.26 1014.69 1015.08 1015.44 1015.77 1016.09 1016.42 1016.75 1017.09 1017.42 1017.73 1018.01 1018.23 1018.39 1018.50 1018.57 1018.61 1018.64 1018.68 1018.74 1018.82 1018.91 1018.99 1019.07 1019.13 1019.18 1019.23 1019.31 1019.44 1019.64 1019.94
1009.29 1009.80 1010.28 1010.72 1011.12 1011.49 1011.86 1012.23 1012.63 1013.04 1013.46 1013.87 1014.28 1014.66 1015.02 1015.37 1015.71 1016.05 1016.41 1016.78 1017.17 1017.55 1017.90 1018.21 1018.46 1018.64 1018.75 1018.81 1018.83 1018.83 1018.83 1018.84 1018.87 1018.91 1018.95 1018.98 1019.02 1019.04 1019.09 1019.16 1019.30 1019.52 1019.82
1009.65 1010.22 1010.75 1011.21 1011.62 1011.98 1012.32 1012.65 1012.99 1013.35 1013.73 1014.10 1014.48 1014.84 1015.19 1015.53 1015.88 1016.23 1016.61 1017.00 1017.40 1017.79 1018.16 1018.49 1018.74 1018.93 1019.04 1019.09 1019.09 1019.07 1019.04 1019.02 1019.01 1019.00 1019.00 1019.00 1019.00 1019.00 1019.02 1019.08 1019.21 1019.41 1019.71
1010.06 1010.66 1011.21 1011.69 1012.10 1012.45 1012.78 1013.09 1013.42 1013.76 1014.12 1014.48 1014.85 1015.21 1015.55 1015.90 1016.24 1016.59 1016.96 1017.34 1017.73 1018.11 1018.47 1018.78 1019.02 1019.19 1019.30 1019.34 1019.34 1019.30 1019.26 1019.22 1019.19 1019.16 1019.14 1019.11 1019.08 1019.06 1019.06 1019.10 1019.19 1019.37 1019.63
1010.45 1011.06 1011.61 1012.09 1012.50 1012.86 1013.19 1013.51 1013.84 1014.19 1014.56 1014.93 1015.31 1015.68 1016.03 1016.38 1016.71 1017.05 1017.39 1017.74 1018.10 1018.44 1018.76 1019.03 1019.25 1019.40 1019.49 1019.53 1019.53 1019.50 1019.46 1019.42 1019.39 1019.36 1019.33 1019.29 1019.26 1019.22 1019.20 1019.22 1019.29 1019.43 1019.65
1010.77 1011.36 1011.89 1012.36 1012.78 1013.15 1013.50 1013.84 1014.20 1014.58 1014.98 1015.38 1015.77 1016.16 1016.52 1016.87 1017.19 1017.51 1017.82 1018.13 1018.43 1018.73 1018.99 1019.22 1019.41 1019.54 1019.61 1019.65 1019.65 1019.63 1019.61 1019.59 1019.58 1019.57 1019.56 1019.54 1019.51 1019.48 1019.45 1019.45 1019.49 1019.60 1019.77
1010.97 1011.51 1012.02 1012.48 1012.90 1013.29 1013.67 1014.06 1014.46 1014.87 1015.30 1015.74 1016.16 1016.57 1016.94 1017.28 1017.60 1017.90 1018.18 1018.45 1018.70 1018.94 1019.17 1019.35 1019.50 1019.61 1019.68 1019.71 1019.73 1019.73 1019.74 1019.75 1019.77 1019.79 1019.81 1019.82 1019.82 1019.81 1019.79 1019.78 1019.81 1019.88 1020.01
1011.04 1011.52 1011.99 1012.44 1012.87 1013.29 1013.71 1014.14 1014.58 1015.04 1015.51 1015.97 1016.42 1016.84 1017.22 1017.57 1017.88 1018.16 1018.42 1018.66 1018.89 1019.10 1019.28 1019.44 1019.57 1019.66 1019.72 1019.76 1019.79 1019.82 1019.85 1019.90 1019.96 1020.02 1020.09 1020.14 1020.17 1020.18 1020.18 1020.18 1020.20 1020.24 1020.34
1010.99 1011.42 1011.86 1012.31 1012.75 1013.19 1013.64 1014.11 1014.59 1015.08 1015.58 1016.06 1016.53 1016.96 1017.35 1017.71 1018.02 1018.31 1018.56 1018.80 1019.01 1019.21 1019.38 1019.52 1019.64 1019.72 1019.78 1019.83 1019.87 1019.92 1019.98 1020.06 1020.16 1020.26 1020.37 1020.46 1020.53 1020.58 1020.60 1020.61 1020.62 1020.65 1020.71
1010.90 1011.29 1011.70 1012.14 1012.59 1013.06 1013.54 1014.03 1014.53 1015.04 1015.55 1016.05 1016.52 1016.96 1017.36 1017.73 1018.06 1018.36 1018.63 1018.88 1019.10 1019.30 1019.48 1019.62 1019.73 1019.82 1019.88 1019.93 1019.98 1020.05 1020.13 1020.23 1020.35 1020.49 1020.63 1020.76 1020.87 1020.95 1020.99 1021.02 1021.03 1021.04 1021.08
1010.86 1011.21 1011.61 1012.04 1012.49 1012.96 1013.45 1013.95 1014.46 1014.97 1015.48 1015.96 1016.43 1016.88 1017.29 1017.67 1018.02 1018.35 1018.65 1018.93 1019.18 1019.40 1019.58 1019.74 1019.85 1019.94 1020.00 1020.06 1020.11 1020.18 1020.27 1020.38 1020.52 1020.69 1020.85 1021.01 1021.15 1021.25 1021.32 1021.36 1021.38 1021.39 1021.41
1010.96 1011.29 1011.66 1012.07 1012.51 1012.97 1013.45 1013.94 1014.43 1014.92 1015.40 1015.87 1016.33 1016.77 1017.19 1017.59 1017.96 1018.32 1018.65 1018.96 1019.24 1019.48 1019.68 1019.84 1019.96 1020.05 1020.11 1020.16 1020.21 1020.28 1020.37 1020.49 1020.64 1020.82 1021.00 1021.18 1021.34 1021.47 1021.56 1021.62 1021.65 1021.66 1021.67
1011.27 1011.57 1011.91 1012.30 1012.70 1013.13 1013.56 1014.01 1014.46 1014.91 1015.36 1015.80 1016.24 1016.67 1017.09 1017.50 1017.90 1018.28 1018.64 1018.97 1019.27 1019.52 1019.74 1019.90 1020.02 1020.10 1020.15 1020.19 1020.24 1020.30 1020.39 1020.52 1020.68 1020.86 1021.06 1021.25 1021.43 1021.58 1021.69 1021.77 1021.81 1021.83 1021.85
1011.80 1012.07 1012.37 1012.70 1013.05 1013.41 1013.79 1014.17 1014.56 1014.95 1015.35 1015.76 1016.17 1016.58 1017.00 1017.41 1017.82 1018.22 1018.59 1018.93 1019.23 1019.49 1019.69 1019.85 1019.96 1020.03 1020.08 1020.11 1020.16 1020.22 1020.32 1020.45 1020.62 1020.81 1021.01 1021.22 1021.41 1021.58 1021.70 1021.80 1021.86 1021.90 1021.94
1012.51 1012.74 1012.98 1013.25 1013.52 1013.80 1014.10 1014.40 1014.71 1015.03 1015.37 1015.73 1016.11 1016.50 1016.90 1017.31 1017.71 1018.10 1018.47 1018.80 1019.09 1019.33 1019.52 1019.66 1019.75 1019.82 1019.86 1019.90 1019.95 1020.03 1020.14 1020.28 1020.46 1020.66 1020.87 1021.09 1021.29 1021.46 1021.61 1021.72 1021.80 1021.87 1021.93
1013.33 1013.50 1013.68 1013.87 1014.05 1014.24 1014.43 1014.64 1014.86 1015.11 1015.39 1015.69 1016.03 1016.39 1016.76 1017.15 1017.54 1017.91 1018.25 1018.56 1018.82 1019.03 1019.20 1019.31 1019.40 1019.46 1019.51 1019.56 1019.64 1019.74 1019.87 1020.03 1020.22 1020.44 1020.66 1020.87 1021.07 1021.25 1021.40 1021.53 1021.63 1021.72 1021.81
1014.16 1014.28 1014.39 1014.49 1014.57 1014.66 1014.75 1014.86 1015.00 1015.17 1015.38 1015.62 1015.91 1016.23 1016.57 1016.93 1017.28 1017.62 1017.93 1018.20 1018.42 1018.60 1018.74 1018.84 1018.91 1018.98 1019.05 1019.13 1019.23 1019.37 1019.53 1019.72 1019.93 1020.15 1020.37 1020.58 1020.78 1020.95 1021.10 1021.23 1021.35 1021.46 1021.58
1014.90 1014.98 1015.03 1015.05 1015.05 1015.04 1015.04 1015.05 1015.10 1015.19 1015.33 1015.51 1015.75 1016.02 1016.32 1016.64 1016.95 1017.24 1017.51 1017.74 1017.92 1018.07 1018.18 1018.26 1018.34 1018.42 1018.51 1018.63 1018.77 1018.94 1019.14 1019.36 1019.58 1019.81 1020.02 1020.22 1020.40 1020.55 1020.69 1020.82 1020.94 1021.07 1021.22
1015.52 1015.56 1015.56 1015.52 1015.45 1015.36 1015.27 1015.21 1015.17 1015.18 1015.25 1015.38 1015.55 1015.77 1016.02 1016.29 1016.56 1016.80 1017.02 1017.20 1017.35 1017.46 1017.56 1017.63 1017.72 1017.81 1017.93 1018.08 1018.26 1018.47 1018.70 1018.93 1019.17 1019.39 1019.59 1019.77 1019.92 1020.05 1020.17 1020.28 1020.40 1020.54 1020.71
Thickness
5657 5663 5668 5673 5676 5679 5682 5684 5685 5686 5685 5683 5682 5681 5680 5681 5681 5681 5680 5680 5679 5679 5677 5676 5674 5673 5671 5670 5668 5666 5663 5661 5661 5658 5657 5659 5662 5662 5661 5659 5655 5652 5649
5648 5655 5661 5665 5668 5671 5674 5677 5679 5680 5679 5679 5678 5678 5676 5675 5675 5675 5674 5674 5674 5673 5671 5670 5669 5667 5666 5664 5662 5660 5657 5656 5654 5650 5647 5647 5651 5655 5657 5654 5650 5647 5643
5642 5648 5653 5657 5660 5663 5667 5670 5673 5674 5674 5673 5672 5671 5669 5667 5667 5667 5667 5668 5667 5666 5665 5664 5663 5661 5659 5657 5656 5655 5652 5648 5648 5646 5641 5637 5637 5642 5646 5645 5642 5638 5634
5639 5643 5647 5650 5654 5657 5660 5663 5665 5667 5667 5667 5665 5663 5661 5660 5661 5662 5661 5661 5660 5660 5658 5657 5656 5655 5654 5652 5650 5649 5646 5643 5640 5638 5638 5636 5635 5630 5629 5632 5631 5629 5625
5634 5638 5642 5644 5647 5649 5652 5655 5657 5658 5659 5660 5659 5657 5656 5656 5656 5656 5654 5653 5653 5652 5651 5649 5648 5647 5646 5645 5643 5642 5640 5637 5635 5632 5630 5628 5626 5624 5619 5619 5619 5617 5614
5627 5631 5635 5637 5638 5640 5642 5645 5647 5649 5651 5652 5651 5650 5649 5648 5646 5646 5646 5645 5644 5644 5643 5641 5640 5639 5638 5637 5636 5634 5632 5631 5629 5626 5623 5621 5618 5616 5613 5611 5610 5608 5605
5620 5622 5625 5627 5629 5631 5633 5635 5637 5639 5641 5642 5642 5642 5641 5640 5639 5638 5637 5636 5635 5634 5633 5632 5631 5630 5629 5627 5626 5625 5623 5621 5620 5618 5616 5613 5611 5609 5605 5602 5601 5599 5596
5612 5614 5617 5619 5620 5622 5623 5625 5627 5628 5631 5632 5633 5633 5633 5631 5631 5630 5629 5627 5626 5625 5624 5622 5621 5620 5618 5617 5616 5615 5613 5612 5610 5608 5606 5604 5601 5599 5596 5592 5590 5588 5586
5604 5606 5608 5610 5611 5613 5614 5616 5618 5619 5620 5622 5623 5622 5622 5621 5620 5619 5618 5616 5615 5614 5613 5611 5610 5609 5607 5606 5605 5603 5602 5601 5599 5598 5596 5593 5590 5587 5585 5582 5580 5577 5577
5594 5596 5597 5599 5601 5603 5605 5607 5608 5609 5610 5610 5611 5611 5610 5609 5608 5607 5605 5604 5603 5602 5600 5600 5599 5597 5596 5595 5594 5593 5592 5590 5588 5586 5584 5582 5579 5576 5574 5571 5569 5567 5565
5583 5585 5586 5588 5590 5591 5593 5595 5596 5597 5598 5598 5598 5598 5598 5597 5596 5595 5593 5592 5591 5589 5588 5587 5586 5585 5584 5583 5582 5581 5580 5578 5576 5574 5572 5569 5567 5564 5562 5559 5557 5554 5552
5572 5575 5576 5577 5579 5580 5581 5583 5585 5585 5586 5586 5586 5585 5585 5584 5584 5582 5581 5580 5578 5577 5576 5574 5573 5572 5571 5570 5569 5568 5567 5565 5563 5561 5559 5557 5554 5552 5550 5547 5545 5543 5541
5562 5564 5566 5568 5569 5570 5571 5573 5574 5575 5575 5575 5574 5573 5572 5571 5571 5569 5568 5567 5566 5564 5563 5562 5560 5559 5559 5558 5556 5555 5553 5551 5549 5547 5545 5544 5541 5539 5537 5535 5533 5531 5529
5554 5556 5557 5559 5560 5561 5562 5563 5564 5564 5564 5564 5563 5561 5560 5559 5558 5557 5556 5554 5553 5551 5550 5548 5547 5546 5545 5544 5543 5541 5539 5537 5535 5533 5531 5530 5528 5526 5524 5523 5520 5518 5516
5548 5550 5550 5551 5552 5553 5554 5554 5554 5554 5554 5553 5551 5550 5549 5548 5546 5545 5543 5542 5540 5538 5537 5536 5534 5533 5532 5530 5529 5528 5526 5524 5521 5519 5517 5516 5514 5513 5512 5510 5508 5506 5503
5542 5544 5545 5545 5545 5545 5546 5545 5545 5545 5544 5542 5541 5539 5538 5536 5534 5533 5531 5529 5527 5526 5525 5523 5522 5520 5519 5518 5517 5515 5513 5511 5509 5506 5504 5502 5501 5500 5499 5498 5496 5494 5491
5534 5536 5536 5537 5538 5539 5539 5537 5537 5536 5534 5532 5531 5529 5527 5525 5523 5522 5520 5518 5516 5514 5512 5511 5509 5508 5506 5505 5504 5503 5500 5498 5496 5494 5492 5491 5489 5487 5486 5485 5483 5481 5480
5525 5527 5528 5529 5530 5531 5531 5530 5529 5527 5524 5522 5521 5519 5517 5515 5513 5511 5508 5506 5504 5502 5501 5499 5497 5496 5494 5493 5492 5490 5488 5486 5484 5482 5481 5479 5477 5476 5474 5472 5470 5468 5467
5515 5516 5518 5520 5522 5523 5522 5521 5520 5518 5516 5514 5513 5511 5508 5506 5503 5500 5498 5495 5493 5491 5489 5488 5486 5484 5483 5482 5480 5478 5476 5474 5472 5471 5470 5468 5466 5466 5464 5461 5458 5456 5455
5505 5506 5508 5511 5512 5512 5513 5511 5510 5508 5507 5506 5504 5502 5499 5497 5494 5491 5488 5485 5483 5480 5479 5477 5476 5474 5472 5471 5470 5468 5465 5463 5461 5460 5459 5459 5457 5456 5454 5451 5448 5446 5444
5495 5497 5498 5498 5500 5501 5502 5501 5500 5498 5498 5496 5494 5492 5490 5487 5485 5481 5479 5476 5473 5471 5468 5466 5465 5464 5463 5462 5461 5459 5456 5454 5452 5451 5449 5449 5448 5447 5445 5442 5440 5438 5436
5483 5485 5486 5487 5488 5490 5490 5489 5488 5488 5487 5486 5484 5482 5480 5478 5476 5472 5469 5467 5464 5461 5459 5457 5456 5455 5454 5453 5452 5451 5449 5447 5444 5442 5441 5440 5439 5438 5436 5434 5432 5430 5428
5472 5473 5474 5475 5477 5478 5479 5477 5477 5477 5477 5475 5474 5472 5471 5468 5466 5464 5461 5458 5456 5454 5452 5449 5448 5447 5446 5445 5444 5443 5441 5439 5437 5435 5433 5432 5431 5429 5427 5426 5424 5421 5418
5462 5463 5464 5465 5465 5467 5468 5468 5468 5468 5467 5466 5464 5463 5462 5460 5458 5456 5454 5451 5449 5447 5445 5444 5442 5440 5438 5437 5436 5435 5434 5433 5430 5427 5426 5425 5423 5421 5419 5417 5415 5412 5410
5452 5453 5454 5455 5456 5457 5458 5458 5458 5459 5458 5457 5456 5456 5454 5452 5450 5448 5447 5446 5445 5443 5441 5439 5437 5434 5432 5432 5431 5428 5426 5424 5422 5420 5417 5415 5413 5412 5410 5408 5406 5404 5402
5443 5444 5445 5446 5447 5448 5448 5449 5449 5450 5450 5449 5448 5447 5446 5445 5443 5441 5440 5440 5438 5437 5436 5435 5432 5431 5430 5428 5427 5424 5422 5419 5417 5413 5410 5408 5407 5405 5403 5401 5399 5397 5394